LU9FW-5 Weather Reports


time (UTC)temp
C
wind
direction
speed
KPH
gust
KPH
rain 1hr
cm
rain 24hr
cm
rain mn
cm
humidity
%
barometer
mb
20260507170441 15 225 20.9 29.0 0.00 0.00 0.13 58 1001.6
20260507170320 15 248 16.1 29.0 0.00 0.00 0.13 58 1001.8
20260507170208 15 225 20.9 29.0 0.00 0.00 0.13 58 1001.7
20260507170100 15 203 19.3 29.0 0.00 0.00 0.13 58 1001.7
20260507165952 15 180 24.1 29.0 0.00 0.00 0.13 58 1001.7
20260507165840 15 203 22.5 29.0 0.00 0.00 0.13 59 1001.8
20260507165731 15 203 16.1 29.0 0.00 0.00 0.13 60 1001.7
20260507165621 15 203 16.1 32.2 0.00 0.00 0.13 60 1001.9
20260507165513 15 203 20.9 32.2 0.00 0.00 0.13 59 1001.8
20260507165356 15 203 20.9 32.2 0.00 0.00 0.13 60 1001.9
20260507165243 15 225 19.3 32.2 0.00 0.00 0.13 60 1002.0
20260507165144 15 225 22.5 32.2 0.00 0.00 0.13 60 1002.0
20260507165033 15 203 20.9 32.2 0.00 0.00 0.13 59 1002.0
20260507164912 15 203 20.9 32.2 0.00 0.00 0.13 60 1001.9
20260507164810 15 225 24.1 32.2 0.00 0.00 0.13 59 1001.9
20260507164655 15 203 22.5 32.2 0.00 0.00 0.13 60 1001.9
20260507164547 15 225 19.3 32.2 0.00 0.00 0.13 61 1001.7
20260507164428 15 203 22.5 32.2 0.00 0.00 0.13 59 1001.7
20260507164216 14 203 22.5 32.2 0.00 0.00 0.13 60 1001.5
20260507164105 14 203 22.5 32.2 0.00 0.00 0.13 59 1001.5
20260507163949 15 203 22.5 32.2 0.00 0.00 0.13 60 1001.6
20260507163839 15 203 19.3 32.2 0.00 0.00 0.13 60 1001.5
20260507163736 15 225 19.3 32.2 0.00 0.00 0.13 60 1001.5
20260507163622 14 180 19.3 32.2 0.00 0.00 0.13 60 1001.5
20260507163504 14 203 22.5 32.2 0.00 0.00 0.13 59 1001.3
20260507163402 14 180 22.5 32.2 0.00 0.00 0.13 59 1001.5
20260507163253 15 203 25.7 32.2 0.00 0.00 0.13 59 1001.4
20260507163143 15 203 24.1 32.2 0.00 0.00 0.13 59 1001.2
20260507163027 15 225 20.9 32.2 0.00 0.00 0.13 60 1001.3
20260507162915 15 180 24.1 35.4 0.00 0.00 0.13 59 1001.3
20260507162815 15 158 17.7 37.0 0.00 0.00 0.13 60 1001.2
20260507162703 15 203 17.7 37.0 0.00 0.00 0.13 60 1001.3
20260507162545 15 203 20.9 37.0 0.00 0.00 0.13 61 1001.4
20260507162436 15 203 24.1 37.0 0.00 0.00 0.13 59 1001.4
20260507162409 15 180 24.1 37.0 0.00 0.00 0.13 61 1001.3
20260507162223 15 158 24.1 37.0 0.00 0.00 0.13 59 1001.5
20260507162103 15 180 25.7 37.0 0.00 0.00 0.13 60 1001.3
20260507161956 15 203 24.1 37.0 0.00 0.00 0.13 62 1001.3
20260507161921 15 203 29.0 37.0 0.00 0.00 0.13 60 1001.3
20260507161834 15 203 22.5 27.4 0.00 0.00 0.13 61 1001.1
20260507153418 14 203 16.1 29.0 0.00 0.00 0.13 65 1001.2
20260507153308 14 203 24.1 29.0 0.00 0.00 0.13 63 1001.3
20260507153157 14 225 17.7 27.4 0.00 0.00 0.13 65 1001.6
20260507153038 14 203 19.3 27.4 0.00 0.00 0.13 65 1001.4
20260507152938 14 203 14.5 27.4 0.00 0.00 0.13 66 1001.3
20260507152826 14 180 19.3 27.4 0.00 0.00 0.13 64 1001.5
20260507152718 14 203 24.1 27.4 0.00 0.00 0.13 63 1001.6
20260507152558 14 225 19.3 27.4 0.00 0.00 0.13 64 1001.7
20260507152450 13 203 16.1 27.4 0.00 0.00 0.13 66 1001.8
20260507152341 13 203 20.9 27.4 0.00 0.00 0.13 65 1001.8
20260507152239 13 203 14.5 27.4 0.00 0.00 0.13 65 1001.7
20260507152114 13 225 17.7 27.4 0.00 0.00 0.13 65 1001.8
20260507152013 13 203 19.3 27.4 0.00 0.00 0.13 65 1001.7
20260507151758 13 203 16.1 25.7 0.00 0.00 0.13 67 1001.9
20260507151634 13 203 17.7 25.7 0.00 0.00 0.13 66 1001.9
20260507151524 13 203 16.1 25.7 0.00 0.00 0.13 67 1001.8
20260507151422 13 203 12.9 25.7 0.00 0.00 0.13 68 1001.9
20260507151309 13 225 16.1 25.7 0.00 0.00 0.13 67 1002.1
20260507151153 13 225 17.7 25.7 0.00 0.00 0.13 66 1002.1
20260507151043 13 203 14.5 25.7 0.00 0.00 0.13 67 1002.1
20260507150942 13 225 17.7 25.7 0.00 0.00 0.13 67 1002.3
20260507150831 13 203 17.7 25.7 0.00 0.00 0.13 67 1002.4
20260507150712 13 180 17.7 25.7 0.00 0.00 0.13 66 1002.4
20260507150603 13 203 19.3 29.0 0.00 0.00 0.13 66 1002.3
20260507150500 13 225 17.7 29.0 0.00 0.00 0.13 68 1002.4
20260507150433 13 225 17.7 29.0 0.00 0.00 0.13 68 1002.5
20260507150233 13 203 17.7 29.0 0.00 0.00 0.13 67 1002.0
20260507150123 13 180 17.7 29.0 0.00 0.00 0.13 66 1002.1
20260507150013 13 203 19.3 29.0 0.00 0.00 0.13 67 1002.1
20260507145751 13 225 16.1 29.0 0.00 0.00 0.13 68 1002.0
20260507145644 13 203 17.7 29.0 0.00 0.00 0.13 68 1001.9
20260507145532 13 225 17.7 25.7 0.00 0.00 0.13 68 1002.0
20260507145422 13 203 17.7 25.7 0.00 0.00 0.13 68 1002.1
20260507145155 13 203 17.7 25.7 0.00 0.00 0.13 68 1002.0
20260507145050 13 203 17.7 25.7 0.00 0.00 0.13 68 1002.0
20260507144942 13 203 17.7 25.7 0.00 0.00 0.13 69 1002.0
20260507144824 13 203 17.7 27.4 0.00 0.00 0.13 68 1001.9
20260507144714 13 203 17.7 29.0 0.00 0.00 0.13 67 1001.9
20260507144611 13 225 19.3 29.0 0.00 0.00 0.13 68 1001.7
20260507144501 13 203 14.5 29.0 0.00 0.00 0.13 70 1001.7
20260507144342 13 180 14.5 29.0 0.00 0.00 0.13 69 1001.6
20260507144231 13 203 20.9 29.0 0.00 0.00 0.13 68 1001.6
20260507144125 13 203 20.9 29.0 0.00 0.00 0.13 67 1001.6
20260507144022 13 180 19.3 29.0 0.00 0.00 0.13 68 1001.8
20260507143856 13 180 22.5 29.0 0.00 0.00 0.13 66 1001.6
20260507143802 13 225 19.3 25.7 0.00 0.00 0.13 67 1001.5
20260507143644 13 203 17.7 25.7 0.00 0.00 0.13 68 1001.6
20260507143540 13 203 17.7 25.7 0.00 0.00 0.13 68 1001.7
20260507143415 13 203 17.7 25.7 0.00 0.00 0.13 68 1001.8
20260507143313 13 203 17.7 25.7 0.00 0.00 0.13 68 1001.8
20260507143200 13 203 17.7 25.7 0.00 0.00 0.13 69 1001.8
20260507143052 13 203 20.9 25.7 0.00 0.00 0.13 68 1001.9
20260507142933 13 180 12.9 25.7 0.00 0.00 0.13 70 1001.9
20260507142832 13 225 16.1 25.7 0.00 0.00 0.13 69 1001.9
20260507142611 13 180 16.1 25.7 0.00 0.00 0.13 70 1001.9
20260507142451 13 203 17.7 25.7 0.00 0.00 0.13 70 1001.9
20260507142343 13 225 16.1 25.7 0.00 0.00 0.13 69 1001.9
20260507142241 13 203 17.7 27.4 0.00 0.00 0.13 71 1001.9
20260507142131 13 203 20.9 27.4 0.00 0.00 0.13 68 1001.8
20260507142012 13 180 17.7 27.4 0.00 0.00 0.13 68 1001.6
20260507141904 13 203 17.7 27.4 0.00 0.00 0.13 70 1001.7
20260507141754 13 225 14.5 27.4 0.00 0.00 0.13 70 1001.7
20260507141644 13 203 16.1 27.4 0.00 0.00 0.13 71 1001.6
20260507141533 13 203 17.7 27.4 0.00 0.00 0.13 71 1001.6
20260507141425 13 203 17.7 27.4 0.00 0.00 0.13 71 1001.7
20260507141339 13 203 17.7 27.4 0.00 0.00 0.13 71 1001.4
20260507141256 13 225 17.7 25.7 0.00 0.00 0.13 71 1001.5
20260507141051 13 203 17.7 25.7 0.00 0.00 0.13 70 1001.5
20260507140943 13 180 16.1 25.7 0.00 0.00 0.13 72 1001.4
20260507140834 13 203 16.1 25.7 0.00 0.00 0.13 71 1001.4
20260507140724 13 180 17.7 25.7 0.00 0.00 0.13 72 1001.2
20260507140606 13 203 17.7 25.7 0.00 0.00 0.13 72 1001.4
20260507140457 13 203 17.7 25.7 0.00 0.00 0.13 73 1001.2
20260507140348 13 203 20.9 25.7 0.00 0.00 0.13 71 1001.4
20260507140246 13 180 16.1 25.7 0.00 0.00 0.13 71 1001.5
20260507140013 13 180 16.1 25.7 0.00 0.00 0.13 73 1001.2
20260507135905 13 203 17.7 25.7 0.00 0.00 0.13 72 1001.2
20260507135805 13 203 17.7 24.1 0.00 0.00 0.13 72 1001.2
20260507135640 13 203 14.5 22.5 0.00 0.00 0.13 72 1001.3
20260507135535 13 180 11.3 22.5 0.00 0.00 0.13 74 1001.2
20260507135425 13 203 11.3 22.5 0.00 0.00 0.13 74 1001.1
20260507135317 13 203 12.9 22.5 0.00 0.00 0.13 73 1001.4
20260507135201 13 180 12.9 22.5 0.00 0.00 0.13 73 1001.6
20260507135050 13 203 12.9 22.5 0.00 0.00 0.13 72 1001.4
20260507134942 13 203 14.5 22.5 0.00 0.00 0.13 72 1001.5
20260507134839 13 203 16.1 22.5 0.00 0.00 0.13 71 1001.6
20260507134721 13 225 14.5 20.9 0.00 0.00 0.13 73 1001.4
20260507134621 13 180 12.9 20.9 0.00 0.00 0.13 71 1001.4
20260507134500 13 180 12.9 22.5 0.00 0.00 0.13 71 1001.5
20260507134357 13 158 14.5 22.5 0.00 0.00 0.13 72 1001.4
20260507134238 13 203 9.7 22.5 0.00 0.00 0.13 72 1001.5
20260507134129 13 203 12.9 22.5 0.00 0.00 0.13 72 1001.7
20260507134027 13 180 14.5 22.5 0.00 0.00 0.13 72 1001.7
20260507133916 13 203 12.9 24.1 0.00 0.00 0.13 72 1001.8
20260507133758 13 225 12.9 24.1 0.00 0.00 0.13 71 1001.7
20260507133645 13 180 12.9 25.7 0.00 0.00 0.13 71 1001.7
20260507133435 13 180 12.9 25.7 0.00 0.00 0.13 70 1001.6
20260507133308 13 180 12.9 25.7 0.00 0.00 0.13 70 1001.6
20260507133200 13 180 14.5 25.7 0.00 0.00 0.13 68 1001.6
20260507133101 13 180 17.7 25.7 0.00 0.00 0.13 69 1001.5
20260507132951 13 203 17.7 25.7 0.00 0.00 0.13 70 1001.5
20260507132830 13 158 12.9 25.7 0.00 0.00 0.13 69 1001.5
20260507132722 13 158 17.7 25.7 0.00 0.00 0.13 67 1001.4
20260507132612 13 158 16.1 25.7 0.00 0.00 0.13 68 1001.5
20260507132508 13 203 12.9 25.7 0.00 0.00 0.13 68 1001.3
20260507132352 13 203 12.9 25.7 0.00 0.00 0.13 71 1001.2
20260507132241 13 180 11.3 25.7 0.00 0.00 0.13 71 1001.2
20260507132149 13 158 11.3 25.7 0.00 0.00 0.13 69 1001.0
20260507132122 13 158 11.3 25.7 0.00 0.00 0.13 69 1000.9
20260507131908 13 203 12.9 25.7 0.00 0.00 0.13 69 1000.8
20260507131800 13 180 16.1 25.7 0.00 0.00 0.13 69 1000.8
20260507131649 13 203 12.9 24.1 0.00 0.00 0.13 69 1001.0
20260507131540 13 158 14.5 24.1 0.00 0.00 0.13 71 1000.7
20260507131421 13 158 12.9 22.5 0.00 0.00 0.13 69 1000.9
20260507131313 13 158 17.7 22.5 0.00 0.00 0.13 68 1000.9
20260507131211 13 225 17.7 22.5 0.00 0.00 0.13 69 1001.0
20260507131128 13 180 14.5 17.7 0.00 0.00 0.13 70 1001.2
20260507131056 13 180 12.9 20.9 0.00 0.00 0.13 70 1001.1
20260507130834 13 180 11.3 20.9 0.00 0.00 0.13 70 1001.1
20260507130734 13 135 11.3 20.9 0.00 0.00 0.13 69 1000.9
20260507130659 13 180 11.3 20.9 0.00 0.00 0.13 69 1001.0
20260507130614 13 180 12.9 22.5 0.00 0.00 0.13 68 1001.2
20260507130350 13 180 12.9 22.5 0.00 0.00 0.13 70 1001.4
20260507130242 13 203 16.1 22.5 0.00 0.00 0.13 70 1001.9
20260507130134 13 180 12.9 22.5 0.00 0.00 0.13 70 1001.6
20260507130015 13 203 14.5 27.4 0.00 0.00 0.13 70 1001.5
20260507125911 13 203 14.5 32.2 0.00 0.00 0.13 70 1001.6
20260507125803 13 180 12.9 32.2 0.00 0.00 0.13 71 1001.6
20260507125653 13 180 16.1 32.2 0.00 0.00 0.13 71 1001.6
20260507125537 13 158 16.1 32.2 0.00 0.00 0.13 70 1001.5
20260507125325 13 203 16.1 32.2 0.00 0.00 0.13 71 1001.5
20260507125215 13 203 14.5 32.2 0.00 0.00 0.13 72 1001.4
20260507125058 13 180 17.7 32.2 0.00 0.00 0.13 72 1001.4
20260507124946 13 180 20.9 32.2 0.00 0.00 0.13 71 1001.5
20260507124835 13 203 19.3 27.4 0.00 0.00 0.13 71 1001.4
20260507124622 13 180 17.7 27.4 0.00 0.00 0.13 71 1001.2
20260507124547 13 180 17.7 27.4 0.00 0.00 0.13 72 1001.3
20260507124508 13 203 17.7 29.0 0.00 0.00 0.13 71 1001.1
20260507124250 13 203 17.7 29.0 0.00 0.00 0.13 71 1001.0
20260507124132 13 203 17.7 29.0 0.00 0.00 0.13 71 1001.1
20260507124030 13 203 19.3 29.0 0.00 0.00 0.13 71 1001.0
20260507123914 13 158 17.7 29.0 0.00 0.00 0.13 71 1001.0
20260507123804 13 203 19.3 29.0 0.00 0.00 0.13 71 1000.8
20260507123646 13 158 19.3 32.2 0.00 0.00 0.13 70 1000.6
20260507123546 13 203 16.1 32.2 0.00 0.00 0.13 72 1000.7
20260507123517 13 158 24.1 32.2 0.00 0.00 0.13 71 1000.4
20260507123324 13 180 19.3 32.2 0.00 0.00 0.13 71 1000.5
20260507123208 13 203 22.5 32.2 0.00 0.00 0.13 71 1000.2
20260507123058 13 180 19.3 32.2 0.00 0.00 0.13 71 1000.4
20260507122950 13 203 20.9 33.8 0.00 0.00 0.13 71 1000.2
20260507122842 13 158 17.7 33.8 0.00 0.00 0.13 72 1000.1
20260507122724 13 180 20.9 37.0 0.00 0.00 0.13 72 999.9
20260507122622 13 158 20.9 37.0 0.00 0.00 0.13 72 999.9
20260507122511 13 203 20.9 37.0 0.00 0.00 0.13 71 999.9
20260507122402 13 203 22.5 37.0 0.00 0.00 0.13 71 999.7
20260507122243 13 180 24.1 37.0 0.00 0.00 0.13 70 999.9
20260507122133 13 180 22.5 37.0 0.00 0.00 0.13 71 1000.0
20260507122033 13 158 25.7 37.0 0.00 0.00 0.13 70 1000.0
20260507121920 13 158 24.1 37.0 0.00 0.00 0.13 71 1000.1
20260507121651 13 203 22.5 32.2 0.00 0.00 0.13 71 1000.0
20260507121543 13 180 20.9 32.2 0.00 0.00 0.13 73 1000.0
20260507121457 13 180 16.1 32.2 0.00 0.00 0.13 73 999.8
20260507121421 13 203 17.7 32.2 0.00 0.00 0.13 72 999.9
20260507121211 13 180 19.3 32.2 0.00 0.00 0.13 73 999.9
20260507121103 13 113 17.7 32.2 0.00 0.00 0.13 73 1000.2
20260507120952 13 158 17.7 33.8 0.00 0.00 0.13 73 1000.0
20260507120836 13 203 24.1 33.8 0.00 0.00 0.13 71 999.9
20260507120732 13 180 19.3 33.8 0.00 0.00 0.13 72 999.9
20260507120624 13 203 14.5 33.8 0.00 0.00 0.13 72 999.7
20260507120514 13 158 12.9 33.8 0.00 0.00 0.13 72 999.6
20260507120352 13 180 24.1 33.8 0.00 0.00 0.13 71 999.5
20260507120252 13 180 17.7 33.8 0.00 0.00 0.13 71 999.7
20260507120034 13 180 19.3 33.8 0.00 0.00 0.13 72 999.3
20260507115913 13 180 17.7 33.8 0.00 0.00 0.13 72 999.3
20260507115805 13 158 14.5 33.8 0.00 0.00 0.13 72 999.3
20260507115655 13 180 20.9 37.0 0.00 0.00 0.13 72 999.3
20260507115553 13 180 17.7 38.6 0.00 0.00 0.13 71 999.3
20260507115443 13 135 22.5 43.5 0.00 0.00 0.13 72 999.1
20260507115407 13 180 24.1 43.5 0.00 0.00 0.13 70 999.1
20260507115330 13 180 19.3 43.5 0.00 0.00 0.13 72 999.1
20260507115104 13 180 20.9 43.5 0.00 0.00 0.13 72 999.1
20260507114947 13 158 17.7 43.5 0.00 0.00 0.13 72 998.9
20260507114839 13 158 19.3 43.5 0.00 0.00 0.13 71 998.8
20260507114736 13 180 24.1 43.5 0.00 0.00 0.13 72 998.7
20260507114630 13 180 27.4 43.5 0.00 0.00 0.13 72 999.1
20260507114510 13 180 32.2 43.5 0.00 0.00 0.13 71 999.0
20260507114358 13 203 25.7 40.2 0.00 0.00 0.13 72 999.0
20260507114331 13 180 20.9 40.2 0.00 0.00 0.13 71 998.8
20260507114145 13 180 24.1 40.2 0.00 0.00 0.13 71 998.5
20260507114029 13 203 29.0 40.2 0.00 0.00 0.13 70 998.5
20260507113916 13 180 25.7 37.0 0.00 0.00 0.13 71 998.5
20260507113807 13 180 24.1 37.0 0.00 0.00 0.13 73 998.6
20260507113706 13 180 24.1 38.6 0.00 0.00 0.13 73 998.3
20260507113547 13 203 25.7 38.6 0.00 0.00 0.13 72 998.3
20260507113437 13 180 24.1 38.6 0.00 0.00 0.13 73 998.2
20260507113328 13 180 22.5 38.6 0.00 0.00 0.13 72 998.1
20260507113218 13 180 20.9 38.6 0.00 0.00 0.13 73 998.0
20260507113059 13 180 20.9 43.5 0.00 0.00 0.13 72 997.9
20260507112951 13 180 25.7 43.5 0.00 0.00 0.13 72 998.2
20260507112849 13 180 22.5 43.5 0.00 0.00 0.13 73 998.1
20260507112806 13 203 24.1 43.5 0.00 0.00 0.13 72 998.2
20260507112729 13 135 25.7 43.5 0.00 0.00 0.13 72 998.2
20260507112514 13 180 30.6 43.5 0.00 0.00 0.13 71 998.1
20260507112403 13 158 24.1 43.5 0.00 0.00 0.13 73 998.3
20260507112301 13 180 27.4 43.5 0.00 0.00 0.13 73 998.3
20260507112226 13 180 27.4 43.5 0.00 0.00 0.13 72 998.2
20260507112031 13 158 24.1 40.2 0.00 0.00 0.13 73 998.0
20260507111921 13 180 22.5 40.2 0.00 0.00 0.13 74 997.9
20260507111818 13 180 27.4 40.2 0.00 0.00 0.13 73 997.9
20260507111651 13 203 25.7 40.2 0.00 0.00 0.13 73 997.6
20260507111547 13 90 27.4 38.6 0.00 0.00 0.13 73 997.7
20260507111439 13 203 22.5 38.6 0.00 0.00 0.13 74 997.5
20260507111334 13 180 22.5 38.6 0.00 0.00 0.13 73 997.5
20260507111213 13 158 27.4 38.6 0.00 0.00 0.13 74 997.4
20260507111113 13 203 24.1 37.0 0.00 0.00 0.13 74 997.7
20260507110955 13 180 20.9 37.0 0.00 0.00 0.13 76 997.5
20260507110853 13 180 17.7 37.0 0.00 0.00 0.13 75 997.3
20260507110734 13 203 19.3 37.0 0.00 0.00 0.13 75 997.5
20260507110659 13 180 20.9 37.0 0.00 0.00 0.13 74 997.6
20260507110521 13 180 22.5 37.0 0.00 0.00 0.13 75 997.7
20260507110412 13 203 20.9 37.0 0.00 0.00 0.13 75 997.6
20260507110253 13 135 24.1 37.0 0.00 0.00 0.13 73 998.0
20260507110143 13 203 24.1 37.0 0.00 0.00 0.13 73 997.7
20260507105922 13 203 19.3 37.0 0.00 0.00 0.13 73 997.7
20260507105804 13 180 20.9 37.0 0.00 0.00 0.13 73 997.8
20260507105701 13 180 19.3 35.4 0.00 0.00 0.13 72 997.8
20260507105552 13 180 24.1 37.0 0.00 0.00 0.13 72 997.9
20260507105447 13 113 22.5 37.0 0.00 0.00 0.13 72 997.6
20260507105329 13 158 19.3 37.0 0.00 0.00 0.13 73 997.5
20260507105223 13 180 24.1 37.0 0.00 0.00 0.13 74 997.3
20260507105114 13 203 22.5 37.0 0.00 0.00 0.13 74 997.2
20260507105003 13 180 25.7 37.0 0.00 0.00 0.13 73 997.2
20260507104845 13 180 24.1 37.0 0.00 0.00 0.13 74 997.4
20260507104737 13 180 24.1 37.0 0.00 0.00 0.13 73 997.3
20260507104632 13 180 24.1 37.0 0.00 0.00 0.13 75 997.3
20260507104522 13 158 17.7 33.8 0.00 0.00 0.13 76 997.4
20260507104403 13 135 25.7 33.8 0.00 0.00 0.13 75 997.4
20260507104254 13 158 17.7 29.0 0.00 0.00 0.13 75 997.4
20260507104144 13 158 17.7 32.2 0.00 0.00 0.13 76 997.5
20260507104036 14 158 14.5 32.2 0.00 0.00 0.13 77 997.6
20260507103918 14 158 16.1 32.2 0.00 0.00 0.13 77 997.9
20260507103810 14 158 16.1 32.2 0.00 0.00 0.13 78 998.1
20260507103701 14 203 14.5 33.8 0.00 0.00 0.13 77 997.9
20260507103617 14 158 16.1 33.8 0.00 0.00 0.13 77 998.1
20260507103548 14 113 17.7 33.8 0.00 0.00 0.13 76 998.1
20260507103327 14 180 19.3 33.8 0.00 0.00 0.13 77 998.1
20260507103226 14 158 24.1 33.8 0.00 0.00 0.13 77 998.1
20260507103115 14 180 16.1 33.8 0.00 0.00 0.13 79 998.1
20260507102955 14 135 14.5 33.8 0.00 0.00 0.13 79 998.1
20260507102846 14 180 17.7 33.8 0.00 0.00 0.13 79 998.3
20260507102738 14 180 22.5 33.8 0.00 0.00 0.13 78 998.4
20260507102636 14 180 17.7 29.0 0.00 0.00 0.13 79 998.4
20260507102517 14 180 17.7 29.0 0.00 0.00 0.13 79 998.6
20260507102407 14 180 20.9 29.0 0.00 0.00 0.13 78 998.7
20260507102256 14 180 20.9 27.4 0.00 0.00 0.13 79 998.8
20260507102154 14 203 17.7 29.0 0.00 0.00 0.13 79 998.8
20260507102035 14 158 17.7 29.0 0.00 0.00 0.13 79 998.8
20260507101930 14 180 17.7 29.0 0.00 0.00 0.13 80 998.8
20260507101812 14 180 17.7 29.0 0.00 0.00 0.13 80 998.8
20260507101712 14 180 16.1 29.0 0.00 0.00 0.13 80 998.7
20260507101546 15 180 17.7 29.0 0.00 0.00 0.13 79 998.7
20260507101446 15 180 17.7 29.0 0.00 0.00 0.13 79 998.5
20260507101331 15 158 17.7 29.0 0.00 0.00 0.13 80 998.4
20260507101229 15 158 19.3 29.0 0.00 0.00 0.13 80 998.3
20260507101104 15 113 17.7 29.0 0.00 0.00 0.13 80 998.2
20260507101002 15 158 22.5 29.0 0.00 0.00 0.13 80 998.2
20260507100743 15 158 17.7 29.0 0.00 0.00 0.13 82 998.2
20260507100624 15 113 24.1 32.2 0.00 0.00 0.13 82 998.2
20260507100520 15 135 19.3 32.2 0.00 0.00 0.13 82 998.2
20260507100409 15 158 17.7 32.2 0.00 0.00 0.13 83 998.4
20260507100305 15 158 17.7 32.2 0.00 0.00 0.13 83 998.5
20260507100146 15 158 19.3 32.2 0.00 0.00 0.13 83 998.6
20260507100038 15 158 17.7 32.2 0.00 0.00 0.13 83 998.7
20260507095927 15 180 17.7 32.2 0.00 0.00 0.13 83 998.5
20260507095825 15 203 17.7 32.2 0.00 0.00 0.13 83 998.6
20260507095702 15 158 17.7 32.2 0.00 0.00 0.13 83 998.5
20260507095552 15 158 20.9 35.4 0.00 0.00 0.13 83 998.4
20260507095443 15 180 19.3 35.4 0.00 0.00 0.13 84 998.5
20260507095342 15 113 17.7 35.4 0.00 0.00 0.13 84 998.6
20260507095222 15 135 17.7 35.4 0.00 0.00 0.13 84 998.7
20260507095113 15 180 17.7 35.4 0.00 0.00 0.13 84 998.9
20260507095003 15 180 17.7 35.4 0.00 0.00 0.13 84 998.8
20260507094854 15 180 19.3 35.4 0.00 0.00 0.13 84 999.1
20260507094735 15 158 17.7 35.4 0.00 0.00 0.13 84 998.9
20260507094627 15 135 22.5 35.4 0.00 0.00 0.13 83 999.0
20260507094524 15 180 22.5 33.8 0.00 0.00 0.13 83 999.0
20260507094415 15 113 24.1 33.8 0.00 0.00 0.13 84 999.0
20260507093753 16 135 24.1 46.7 0.00 0.00 0.13 80 998.9
20260507093040 16 158 24.1 40.2 0.13 0.13 0.13 83 999.3
20260507092934 16 180 19.3 38.6 0.13 0.13 0.13 85 999.4
20260507092826 16 180 20.9 38.6 0.13 0.13 0.13 85 999.4
20260507092723 16 180 20.9 38.6 0.13 0.13 0.13 85 999.5
20260507092603 16 158 22.5 38.6 0.13 0.13 0.13 85 999.4
20260507092452 16 180 20.9 43.5 0.13 0.13 0.13 85 999.3
20260507092342 16 203 24.1 43.5 0.13 0.13 0.13 86 999.4
20260507092234 16 180 19.3 43.5 0.13 0.13 0.13 87 999.1
20260507092116 16 180 24.1 43.5 0.13 0.13 0.13 87 999.1
20260507092007 16 180 24.1 43.5 0.13 0.13 0.13 88 999.1
20260507091902 16 180 17.7 43.5 0.13 0.13 0.13 90 999.1
20260507091754 16 158 24.1 43.5 0.13 0.13 0.13 90 999.1
20260507091526 17 158 22.5 32.2 0.13 0.13 0.13 90 999.1
20260507091424 17 135 24.1 29.0 0.13 0.13 0.13 91 999.1
20260507091314 17 180 20.9 27.4 0.13 0.13 0.13 92 999.0
20260507091158 17 248 17.7 25.7 0.13 0.13 0.13 93 999.2
20260507091045 17 158 20.9 25.7 0.13 0.13 0.13 93 999.2
20260507090943 17 180 20.9 25.7 0.13 0.13 0.13 93 999.6
20260507090833 17 225 17.7 25.7 0.13 0.13 0.13 93 999.7
20260507090714 17 180 17.7 25.7 0.13 0.13 0.13 94 999.8
20260507090455 17 203 14.5 24.1 0.13 0.13 0.13 94 999.7
20260507090347 17 180 12.9 24.1 0.13 0.13 0.13 94 999.9
20260507090229 17 203 12.9 24.1 0.13 0.13 0.13 94 999.6
20260507090135 17 225 14.5 24.1 0.13 0.13 0.13 94 999.7
20260507090012 17 113 14.5 24.1 0.13 0.13 0.13 94 999.6
20260507085912 17 180 14.5 24.1 0.13 0.13 0.13 94 999.4
20260507085747 17 180 12.9 27.4 0.13 0.13 0.13 94 999.4
20260507085638 17 180 19.3 27.4 0.13 0.13 0.13 94 999.2
20260507085534 17 203 14.5 27.4 0.13 0.13 0.13 95 999.0
20260507085424 17 203 14.5 27.4 0.13 0.13 0.13 95 999.0
20260507085307 17 158 12.9 27.4 0.13 0.13 0.13 95 998.9
20260507085203 17 158 12.9 27.4 0.13 0.13 0.13 94 998.7
20260507085103 17 180 11.3 27.4 0.13 0.13 0.13 94 998.8
20260507084940 17 180 12.9 27.4 0.13 0.13 0.13 94 999.1
20260507084822 17 180 17.7 27.4 0.10 0.10 0.13 94 999.0
20260507084713 17 180 12.9 17.7 0.10 0.10 0.10 94 999.2
20260507084610 17 203 11.3 17.7 0.10 0.10 0.10 94 999.2
20260507084459 17 203 11.3 17.7 0.05 0.05 0.10 94 999.3
20260507084341 17 180 12.9 17.7 0.05 0.05 0.05 93 999.3
20260507084239 17 158 12.9 20.9 0.03 0.03 0.03 93 999.6
20260507084128 17 180 9.7 24.1 0.00 0.00 0.03 93 999.6
20260507083859 17 180 11.3 24.1 0.00 0.00 0.00 92 1000.0
20260507083751 17 203 12.9 25.7 0.00 0.00 0.00 93 1000.5
20260507083641 17 203 12.9 25.7 0.00 0.00 0.00 92 1000.4
20260507083539 17 203 12.9 25.7 0.00 0.00 0.00 92 1000.5
20260507083421 17 203 12.9 25.7 0.00 0.00 0.00 92 999.8
20260507083311 17 180 14.5 25.7 0.00 0.00 0.00 92 999.6
20260507083203 17 203 14.5 25.7 0.00 0.00 0.00 92 999.0
20260507083053 17 180 17.7 25.7 0.00 0.00 0.00 92 999.0
20260507082935 17 180 16.1 25.7 0.00 0.00 0.00 92 998.7
20260507082827 17 203 17.7 25.7 0.00 0.00 0.00 92 998.9
20260507082724 17 203 17.7 24.1 0.00 0.00 0.00 92 998.9
20260507082613 17 180 17.7 27.4 0.00 0.00 0.00 92 998.5
20260507082505 17 158 9.7 27.4 0.00 0.00 0.00 92 998.2
20260507082344 17 180 12.9 27.4 0.00 0.00 0.00 92 998.4
20260507082244 17 113 16.1 27.4 0.00 0.00 0.00 92 998.4
20260507082134 17 180 16.1 27.4 0.00 0.00 0.00 92 998.5
20260507082010 17 180 14.5 27.4 0.00 0.00 0.00 92 998.6
20260507081905 17 180 16.1 27.4 0.00 0.00 0.00 92 998.7
20260507081757 17 180 17.7 27.4 0.00 0.00 0.00 92 998.6
20260507081649 17 180 12.9 27.4 0.00 0.00 0.00 92 998.7
20260507081612 17 203 12.9 22.5 0.00 0.00 0.00 92 998.6
20260507081535 17 225 16.1 22.5 0.00 0.00 0.00 92 998.3
20260507081314 17 180 12.9 22.5 0.00 0.00 0.00 92 998.3
20260507081205 17 203 11.3 24.1 0.00 0.00 0.00 92 998.1
20260507081103 17 158 11.3 24.1 0.00 0.00 0.00 92 998.2
20260507081035 17 180 12.9 24.1 0.00 0.00 0.00 92 998.2
20260507080833 17 180 12.9 24.1 0.00 0.00 0.00 92 998.2
20260507080731 17 203 17.7 24.1 0.00 0.00 0.00 92 998.0
20260507080611 17 158 14.5 24.1 0.00 0.00 0.00 92 997.9
20260507080501 17 158 14.5 24.1 0.00 0.00 0.00 92 998.1
20260507080356 17 203 9.7 24.1 0.00 0.00 0.00 92 998.0
20260507080245 17 203 12.9 24.1 0.00 0.00 0.00 92 997.9
20260507080128 17 203 12.9 24.1 0.00 0.00 0.00 92 997.9
20260507080043 17 203 12.9 24.1 0.00 0.00 0.00 92 997.9
20260507080017 17 158 11.3 24.1 0.00 0.00 0.00 92 997.7
20260507075758 17 113 16.1 24.1 0.00 0.00 0.00 92 997.8
20260507075640 17 158 14.5 24.1 0.00 0.00 0.00 92 997.9
20260507075539 17 180 12.9 24.1 0.00 0.00 0.00 91 997.9
20260507075504 17 158 12.9 24.1 0.00 0.00 0.00 91 997.9
20260507075318 17 180 14.5 24.1 0.00 0.00 0.00 91 997.9
20260507075158 17 135 12.9 22.5 0.00 0.00 0.00 91 997.8
20260507075057 17 203 8.0 22.5 0.00 0.00 0.00 91 997.8
20260507074946 17 180 9.7 22.5 0.00 0.00 0.00 91 997.9
20260507074717 17 113 9.7 22.5 0.00 0.00 0.00 91 997.7
20260507074610 17 158 12.9 22.5 0.00 0.00 0.00 91 997.7
20260507074502 17 135 12.9 22.5 0.00 0.00 0.00 91 997.8
20260507074354 17 158 11.3 22.5 0.00 0.00 0.00 90 997.7
20260507074235 17 203 14.5 22.5 0.00 0.00 0.00 90 997.7
20260507074125 17 180 8.0 22.5 0.00 0.00 0.00 91 997.8
20260507074034 17 180 11.3 22.5 0.00 0.00 0.00 91 997.7
20260507073915 17 180 9.7 20.9 0.00 0.00 0.00 91 997.9
20260507073757 17 135 9.7 20.9 0.00 0.00 0.00 91 997.9
20260507073646 17 158 11.3 20.9 0.00 0.00 0.00 90 997.9
20260507073537 17 158 11.3 20.9 0.00 0.00 0.00 90 998.0
20260507073429 17 158 9.7 17.7 0.00 0.00 0.00 90 998.1
20260507073325 17 135 9.7 17.7 0.00 0.00 0.00 90 998.2
20260507073204 17 203 11.3 17.7 0.00 0.00 0.00 90 998.2
20260507073102 17 203 11.3 17.7 0.00 0.00 0.00 90 998.4
20260507072952 18 158 8.0 17.7 0.00 0.00 0.00 90 998.2
20260507072834 18 180 8.0 20.9 0.00 0.00 0.00 90 998.2
20260507072724 18 158 11.3 22.5 0.00 0.00 0.00 90 998.2
20260507072616 18 135 9.7 22.5 0.00 0.00 0.00 90 998.2
20260507072510 18 203 6.4 22.5 0.00 0.00 0.00 90 998.0
20260507072346 18 203 6.4 22.5 0.00 0.00 0.00 90 998.1
20260507072133 18 180 11.3 22.5 0.00 0.00 0.00 89 998.0
20260507072031 18 135 9.7 22.5 0.00 0.00 0.00 90 998.0
20260507071904 18 158 12.9 22.5 0.00 0.00 0.00 89 997.9
20260507071805 18 135 11.3 22.5 0.00 0.00 0.00 90 997.8
20260507071654 18 225 9.7 20.9 0.00 0.00 0.00 90 997.8
20260507071543 18 158 12.9 20.9 0.00 0.00 0.00 90 997.9
20260507071426 18 180 11.3 24.1 0.00 0.00 0.00 89 997.6
20260507071316 18 203 12.9 24.1 0.00 0.00 0.00 89 997.6
20260507071213 18 203 12.9 24.1 0.00 0.00 0.00 89 997.6
20260507071105 18 158 12.9 24.1 0.00 0.00 0.00 89 997.7
20260507070940 18 158 12.9 24.1 0.00 0.00 0.00 89 997.8
20260507070839 18 158 14.5 24.1 0.00 0.00 0.00 89 997.7
20260507070737 18 180 12.9 24.1 0.00 0.00 0.00 89 997.8
20260507070618 18 203 14.5 24.1 0.00 0.00 0.00 89 997.7
20260507070501 18 180 14.5 24.1 0.00 0.00 0.00 89 997.9
20260507070351 18 135 12.9 24.1 0.00 0.00 0.00 89 997.9
20260507070249 18 180 12.9 24.1 0.00 0.00 0.00 89 997.7
20260507070139 18 180 12.9 24.1 0.00 0.00 0.00 89 997.7
20260507070020 18 180 14.5 24.1 0.00 0.00 0.00 89 997.7
20260507065916 18 180 14.5 24.1 0.00 0.00 0.00 89 997.6
20260507065813 18 180 11.3 22.5 0.00 0.00 0.00 90 997.4
20260507065553 18 203 12.9 22.5 0.00 0.00 0.00 89 997.5
20260507065432 18 180 12.9 20.9 0.00 0.00 0.00 89 997.4
20260507065322 18 180 12.9 20.9 0.00 0.00 0.00 89 997.4
20260507065213 18 158 12.9 27.4 0.00 0.00 0.00 89 997.7
20260507065053 18 180 14.5 27.4 0.00 0.00 0.00 89 997.6
20260507064945 18 203 12.9 27.4 0.00 0.00 0.00 88 997.7
20260507064837 18 203 12.9 27.4 0.00 0.00 0.00 88 997.6
20260507064729 18 180 14.5 27.4 0.00 0.00 0.00 88 997.9
20260507064616 18 203 14.5 27.4 0.00 0.00 0.00 89 997.6
20260507064506 18 180 16.1 27.4 0.00 0.00 0.00 89 997.7
20260507064356 18 203 17.7 27.4 0.00 0.00 0.00 89 997.8
20260507064254 18 180 16.1 27.4 0.00 0.00 0.00 89 997.6
20260507064136 18 203 17.7 25.7 0.00 0.00 0.00 88 997.6
20260507064026 18 203 17.7 25.7 0.00 0.00 0.00 88 997.6
20260507063913 18 158 12.9 25.7 0.00 0.00 0.00 88 997.7
20260507063805 18 203 12.9 25.7 0.00 0.00 0.00 87 997.7
20260507063648 18 135 14.5 22.5 0.00 0.00 0.00 88 997.7
20260507063538 18 180 9.7 17.7 0.00 0.00 0.00 89 997.7
20260507063436 18 203 6.4 17.7 0.00 0.00 0.00 89 997.6
20260507063331 18 158 4.8 20.9 0.00 0.00 0.00 88 997.9
20260507063244 18 113 11.3 20.9 0.00 0.00 0.00 88 997.6
20260507063208 18 203 12.9 20.9 0.00 0.00 0.00 88 997.7
20260507062950 18 180 11.3 20.9 0.00 0.00 0.00 88 997.7
20260507062848 18 180 11.3 20.9 0.00 0.00 0.00 88 997.7
20260507062724 18 158 6.4 20.9 0.00 0.00 0.00 88 997.7
20260507062621 19 135 6.4 20.9 0.00 0.00 0.00 88 997.8
20260507062509 19 158 11.3 20.9 0.00 0.00 0.00 88 997.8
20260507062401 19 180 12.9 20.9 0.00 0.00 0.00 88 997.9
20260507062243 19 180 12.9 20.9 0.00 0.00 0.00 88 997.8
20260507062135 19 203 11.3 20.9 0.00 0.00 0.00 87 997.7
20260507062030 19 180 11.3 20.9 0.00 0.00 0.00 87 997.8
20260507061920 19 203 8.0 20.9 0.00 0.00 0.00 87 997.8
20260507061800 19 135 11.3 20.9 0.00 0.00 0.00 86 997.9
20260507061651 19 180 12.9 20.9 0.00 0.00 0.00 86 998.3
20260507061547 19 180 9.7 14.5 0.00 0.00 0.00 88 998.3
20260507061436 19 180 9.7 14.5 0.00 0.00 0.00 88 998.3
20260507061318 18 203 9.7 14.5 0.00 0.00 0.00 90 998.4
20260507061208 18 203 6.4 14.5 0.00 0.00 0.00 91 998.0
20260507061107 19 180 6.4 14.5 0.00 0.00 0.00 92 998.0
20260507061000 19 203 6.4 14.5 0.00 0.00 0.00 93 997.9
20260507060836 19 180 6.4 14.5 0.00 0.00 0.00 93 998.1
20260507060732 18 225 9.7 14.5 0.00 0.00 0.00 93 998.1
20260507060624 18 203 9.7 11.3 0.00 0.00 0.00 93 998.0
20260507055920 18 180 3.2 6.4 0.00 0.10 0.00 93 997.1
20260507055811 18 203 3.2 6.4 0.00 0.10 0.00 93 996.9
20260507055703 18 180 3.2 6.4 0.00 0.10 0.00 93 997.0
20260507055544 18 90 3.2 6.4 0.00 0.10 0.00 93 996.9
20260507055440 18 180 3.2 6.4 0.00 0.10 0.00 93 997.0
20260507055329 18 158 3.2 6.4 0.00 0.10 0.00 93 997.1
20260507055211 18 113 3.2 6.4 0.00 0.10 0.00 93 997.1
20260507055109 19 113 3.2 6.4 0.00 0.10 0.00 93 997.3
20260507054957 19 113 3.2 6.4 0.00 0.10 0.00 93 997.1
20260507054848 19 68 3.2 6.4 0.00 0.10 0.00 93 997.0
20260507054738 19 68 3.2 6.4 0.00 0.10 0.00 93 997.1
20260507054512 19 113 3.2 6.4 0.00 0.10 0.00 92 997.0
20260507054410 19 113 3.2 6.4 0.00 0.10 0.00 92 996.9
20260507054245 19 113 3.2 6.4 0.00 0.10 0.00 92 997.1
20260507054137 19 45 3.2 11.3 0.00 0.10 0.00 92 997.1
20260507054034 19 68 3.2 11.3 0.00 0.10 0.00 92 997.1
20260507053923 19 68 3.2 11.3 0.00 0.10 0.00 92 997.0
20260507053805 19 113 3.2 11.3 0.00 0.10 0.00 92 997.2
20260507053657 19 158 4.8 11.3 0.00 0.10 0.00 92 997.0
20260507053554 19 203 3.2 11.3 0.00 0.10 0.00 91 997.1
20260507053445 19 225 3.2 11.3 0.00 0.10 0.00 91 997.0
20260507053328 19 225 3.2 11.3 0.00 0.10 0.00 91 997.2
20260507053217 19 158 4.8 11.3 0.00 0.10 0.00 91 997.3
20260507053117 19 135 3.2 6.4 0.00 0.10 0.00 91 997.3
20260507053000 19 113 3.2 6.4 0.00 0.10 0.00 91 997.5
20260507052842 19 158 3.2 9.7 0.00 0.10 0.00 91 997.3
20260507052734 19 158 3.2 9.7 0.00 0.10 0.00 91 997.6
20260507052626 19 113 4.8 12.9 0.00 0.10 0.00 91 997.4
20260507052516 18 68 3.2 12.9 0.00 0.10 0.00 91 997.5
20260507052402 18 68 4.8 12.9 0.00 0.10 0.00 91 997.4
20260507052252 18 90 3.2 12.9 0.00 0.10 0.00 91 997.4
20260507052150 19 90 4.8 12.9 0.00 0.10 0.00 91 997.5
20260507051921 19 68 4.8 12.9 0.00 0.10 0.00 90 997.7
20260507051811 19 68 6.4 12.9 0.00 0.10 0.00 90 997.8
20260507051700 20 68 9.7 12.9 0.00 0.10 0.00 90 997.8
20260507051600 20 23 8.0 12.9 0.00 0.10 0.00 89 997.7
20260507051439 20 68 4.8 11.3 0.00 0.10 0.00 89 997.7
20260507051331 20 90 4.8 11.3 0.00 0.10 0.00 89 997.7
20260507051220 20 135 3.2 11.3 0.00 0.10 0.00 89 997.4
20260507051110 20 135 4.8 11.3 0.00 0.10 0.00 88 997.4
20260507051008 20 158 6.4 11.3 0.00 0.10 0.00 88 997.2
20260507050845 20 158 6.4 12.9 0.00 0.10 0.00 88 996.8
20260507050737 20 135 6.4 12.9 0.00 0.10 0.00 88 997.0
20260507050635 20 158 8.0 12.9 0.00 0.10 0.00 89 996.7
20260507050517 20 135 6.4 12.9 0.00 0.10 0.00 89 996.7
20260507050406 20 158 6.4 12.9 0.00 0.10 0.00 89 996.7
20260507050258 20 158 6.4 12.9 0.00 0.10 0.00 90 996.7
20260507050150 20 180 4.8 12.9 0.00 0.10 0.00 90 996.9
20260507050032 20 203 6.4 12.9 0.00 0.10 0.00 91 996.7
20260507045925 20 158 6.4 12.9 0.00 0.10 0.00 91 996.6
20260507045816 20 203 6.4 12.9 0.00 0.10 0.00 92 996.8
20260507045706 20 203 6.4 12.9 0.00 0.10 0.00 91 996.5
20260507045546 20 225 6.4 12.9 0.00 0.10 0.00 91 996.4
20260507045335 20 180 8.0 12.9 0.00 0.10 0.00 91 996.6
20260507045227 20 203 8.0 12.9 0.00 0.10 0.00 91 996.6
20260507045108 20 158 9.7 12.9 0.00 0.10 0.00 91 996.4
20260507045000 20 180 6.4 12.9 0.00 0.10 0.00 91 996.6
20260507044856 20 158 6.4 12.9 0.00 0.10 0.00 91 996.3
20260507044748 20 158 6.4 12.9 0.00 0.10 0.00 91 996.2
20260507044629 19 180 6.4 20.9 0.00 0.10 0.00 91 995.9
20260507044520 19 158 6.4 20.9 0.00 0.10 0.00 91 996.1
20260507044414 19 158 6.4 20.9 0.00 0.10 0.00 91 996.1
20260507044306 19 225 4.8 20.9 0.00 0.10 0.00 91 996.2
20260507044145 19 135 4.8 22.5 0.00 0.10 0.00 91 996.5
20260507044037 19 180 6.4 24.1 0.00 0.10 0.00 91 996.4
20260507043935 19 180 6.4 25.7 0.00 0.10 0.00 91 996.2
20260507043817 19 158 8.0 25.7 0.00 0.10 0.00 91 996.2
20260507043659 19 203 12.9 25.7 0.00 0.10 0.00 91 996.3
20260507043555 19 180 16.1 27.4 0.00 0.10 0.00 91 996.5
20260507043447 19 180 12.9 27.4 0.00 0.10 0.00 91 996.4
20260507043341 19 203 12.9 27.4 0.00 0.10 0.00 91 996.3
20260507043217 19 158 17.7 27.4 0.00 0.10 0.00 91 996.1
20260507043108 19 180 19.3 27.4 0.00 0.10 0.00 91 996.1
20260507043033 19 180 19.3 27.4 0.00 0.10 0.00 91 996.2
20260507043002 19 180 16.1 27.4 0.00 0.10 0.00 91 996.1
20260507042736 19 180 17.7 27.4 0.00 0.10 0.00 91 995.8
20260507042633 19 203 20.9 29.0 0.00 0.10 0.00 90 995.8
20260507042531 19 180 17.7 29.0 0.00 0.10 0.00 90 996.0
20260507042417 19 180 17.7 32.2 0.00 0.10 0.00 90 995.9
20260507042257 19 203 19.3 32.2 0.00 0.10 0.00 90 995.8
20260507042147 19 203 17.7 33.8 0.00 0.10 0.00 90 995.7
20260507042045 19 180 19.3 33.8 0.00 0.10 0.00 90 995.9
20260507041935 19 203 24.1 33.8 0.00 0.10 0.00 89 995.7
20260507041821 19 203 24.1 33.8 0.00 0.10 0.00 89 995.9
20260507041709 19 203 22.5 33.8 0.00 0.10 0.00 89 995.5
20260507041601 19 203 22.5 33.8 0.00 0.10 0.00 89 995.5
20260507041453 19 203 24.1 33.8 0.00 0.10 0.00 88 995.7
20260507041226 19 203 19.3 33.8 0.00 0.10 0.00 88 996.0
20260507041121 19 203 20.9 32.2 0.00 0.10 0.00 88 996.0
20260507041011 19 203 19.3 32.2 0.00 0.10 0.00 87 996.0
20260507040927 19 180 22.5 32.2 0.00 0.10 0.00 87 995.9
20260507040739 19 203 17.7 32.2 0.00 0.10 0.00 87 995.9
20260507040639 19 225 17.7 33.8 0.00 0.10 0.00 87 995.5
20260507040523 19 203 17.7 33.8 0.00 0.10 0.00 86 995.6
20260507040406 19 180 17.7 37.0 0.00 0.10 0.00 86 995.4
20260507040151 20 180 24.1 38.6 0.00 0.10 0.00 84 995.9
20260507040043 20 203 24.1 38.6 0.00 0.10 0.00 82 995.9
20260507035951 20 203 20.9 38.6 0.00 0.10 0.00 83 995.9
20260507035914 20 180 17.7 38.6 0.00 0.10 0.00 83 995.8
20260507035710 20 203 22.5 40.2 0.00 0.10 0.00 82 995.8
20260507035602 20 225 24.1 40.2 0.00 0.10 0.00 84 995.7
20260507035446 20 203 20.9 43.5 0.00 0.10 0.00 85 995.7
20260507035338 20 203 29.0 43.5 0.00 0.10 0.00 84 995.8
20260507035227 20 203 29.0 43.5 0.00 0.10 0.00 83 995.8
20260507035119 20 180 27.4 43.5 0.00 0.10 0.00 83 995.6
20260507035000 20 203 25.7 43.5 0.00 0.10 0.00 83 995.5
20260507034858 21 180 24.1 43.5 0.00 0.10 0.00 83 995.6
20260507034804 21 203 27.4 43.5 0.00 0.10 0.00 83 995.9
20260507034639 21 203 24.1 46.7 0.00 0.10 0.00 82 996.1
20260507034521 21 203 30.6 46.7 0.03 0.10 0.00 82 996.1
20260507034410 21 225 32.2 46.7 0.03 0.10 0.00 83 995.8
20260507034302 21 225 29.0 46.7 0.05 0.10 0.00 84 995.9
20260507034200 21 203 37.0 46.7 0.10 0.10 0.00 84 995.8
20260507034042 22 225 30.6 48.3 0.10 0.10 0.00 85 996.0
20260507033931 22 203 32.2 48.3 0.10 0.10 0.00 86 995.9
20260507033823 22 203 32.2 48.3 0.10 0.10 0.00 87 995.9
20260507033553 22 225 33.8 48.3 0.10 0.10 0.00 87 995.7
20260507033445 22 203 29.0 48.3 0.10 0.10 0.00 87 995.6
20260507033345 22 225 33.8 48.3 0.10 0.10 0.00 87 995.6
20260507033253 22 203 32.2 48.3 0.10 0.10 0.00 87 995.6
20260507033117 22 203 30.6 48.3 0.10 0.10 0.00 88 995.6
20260507033009 22 203 20.9 38.6 0.10 0.10 0.00 91 995.7
20260507032859 22 225 9.7 17.7 0.10 0.10 0.00 92 995.2
20260507032814 22 225 11.3 17.7 0.10 0.10 0.00 91 995.1
20260507032636 22 225 12.9 17.7 0.10 0.10 0.00 91 994.9
20260507032528 22 203 12.9 17.7 0.10 0.10 0.00 91 994.8
20260507032420 22 225 9.7 14.5 0.10 0.10 0.00 92 995.0
20260507032312 22 225 11.3 14.5 0.10 0.10 0.00 91 995.0
20260507032201 22 203 11.3 14.5 0.10 0.10 0.00 91 995.1
20260507032042 22 203 11.3 14.5 0.10 0.10 0.00 91 995.1
20260507031934 22 203 11.3 14.5 0.10 0.10 0.00 91 995.0
20260507031826 22 203 9.7 12.9 0.10 0.10 0.00 91 994.9
20260507031712 22 203 8.0 12.9 0.10 0.10 0.00 91 995.1
20260507031601 22 225 8.0 11.3 0.10 0.10 0.00 91 994.9
20260507031450 22 203 6.4 11.3 0.10 0.10 0.00 91 995.0
20260507031342 22 203 6.4 11.3 0.10 0.10 0.00 91 994.8
20260507031225 22 225 6.4 11.3 0.10 0.10 0.00 91 994.7
20260507031011 22 203 4.8 11.3 0.10 0.10 0.00 92 994.6
20260507030903 22 203 4.8 11.3 0.10 0.10 0.00 92 994.5
20260507030818 21 203 6.4 11.3 0.10 0.10 0.00 92 994.4
20260507030646 21 180 4.8 11.3 0.10 0.10 0.00 93 994.2
20260507030528 21 203 4.8 6.4 0.10 0.10 0.00 93 994.3
20260507030424 21 203 4.8 6.4 0.10 0.10 0.00 93 994.1
20260507030304 21 180 6.4 6.4 0.10 0.10 0.00 92 994.1
20260507030152 21 180 3.2 6.4 0.10 0.10 0.00 93 994.4
20260507030050 22 180 3.2 6.4 0.10 0.10 0.00 93 994.4
20260507025942 22 180 3.2 6.4 0.10 0.10 0.10 92 994.7
20260507025824 22 203 3.2 6.4 0.10 0.10 0.10 92 994.9
20260507025712 22 203 3.2 6.4 0.10 0.10 0.10 92 995.0
20260507025612 22 203 3.2 6.4 0.10 0.10 0.10 92 995.0
20260507025455 22 203 3.2 6.4 0.10 0.10 0.10 92 995.2
20260507025337 22 225 3.2 6.4 0.10 0.10 0.10 92 995.4
20260507025229 22 248 3.2 6.4 0.10 0.10 0.10 92 995.5
20260507025120 22 225 3.2 6.4 0.10 0.10 0.10 92 995.6
20260507025016 22 225 4.8 6.4 0.10 0.10 0.10 91 995.5
20260507024859 22 225 3.2 6.4 0.10 0.10 0.10 91 995.6
20260507024751 22 203 3.2 6.4 0.10 0.10 0.10 91 995.6
20260507024657 22 203 3.2 3.2 0.10 0.10 0.10 90 995.7
20260507024416 22 270 0.0 0.0 0.05 0.05 0.05 89 995.8
20260507024308 22 0 0.0 0.0 0.03 0.03 0.05 89 995.7
20260507024200 22 0 0.0 3.2 0.00 0.00 0.03 88 995.8
20260507024052 22 0 0.0 3.2 0.00 0.00 0.00 88 995.4
20260507023933 22 45 0.0 3.2 0.00 0.00 0.00 87 995.5
20260507023823 23 270 0.0 3.2 0.00 0.00 0.00 87 995.8
20260507023719 23 248 0.0 3.2 0.00 0.00 0.00 87 995.7
20260507023606 22 203 0.0 3.2 0.00 0.00 0.00 87 995.5
20260507023453 22 203 0.0 3.2 0.00 0.00 0.00 87 995.3
20260507023345 22 180 0.0 3.2 0.00 0.00 0.00 87 995.2
20260507023235 22 180 1.6 3.2 0.00 0.00 0.00 88 995.1
20260507023126 22 203 3.2 6.4 0.00 0.00 0.00 88 995.1
20260507023018 22 203 3.2 6.4 0.00 0.00 0.00 88 995.3
20260507022859 22 180 3.2 6.4 0.00 0.00 0.00 88 994.9
20260507022751 22 180 3.2 6.4 0.00 0.00 0.00 87 994.9
20260507022642 22 180 3.2 6.4 0.00 0.00 0.00 88 994.9
20260507022529 22 180 3.2 9.7 0.00 0.00 0.00 88 995.0
20260507022419 22 203 1.6 14.5 0.00 0.00 0.00 88 995.1
20260507022310 22 203 3.2 14.5 0.00 0.00 0.00 88 995.4
20260507022201 22 225 3.2 14.5 0.00 0.00 0.00 88 995.4
20260507021830 22 225 3.2 14.5 0.00 0.00 0.00 90 996.0
20260507021720 22 225 3.2 14.5 0.00 0.00 0.00 90 996.2
20260507021603 22 203 6.4 14.5 0.00 0.00 0.00 90 996.3
20260507021455 22 203 9.7 14.5 0.00 0.00 0.00 91 996.2
20260507021352 22 225 1.6 6.4 0.00 0.00 0.00 91 996.1
20260507021242 21 22 0.0 3.2 0.00 0.00 0.00 90 996.0
20260507021118 21 22 0.0 6.4 0.00 0.00 0.00 90 996.1
20260507021009 21 0 0.0 6.4 0.00 0.00 0.00 90 996.0
20260507020909 21 0 1.6 6.4 0.00 0.00 0.00 90 996.1
20260507020801 21 0 3.2 6.4 0.00 0.00 0.00 90 996.0
20260507020641 21 0 1.6 6.4 0.00 0.00 0.00 90 996.0
20260507020531 21 0 3.2 6.4 0.00 0.00 0.00 90 996.0
20260507020428 21 0 3.2 6.4 0.00 0.00 0.00 90 996.0
20260507020315 21 0 3.2 6.4 0.00 0.00 0.00 90 996.1
20260507020159 21 0 4.8 6.4 0.00 0.00 0.00 90 996.1
20260507020048 22 0 3.2 6.4 0.00 0.00 0.00 90 996.0
20260507015940 22 0 0.0 0.0 0.00 0.00 0.00 89 996.0
20260507015835 22 0 0.0 0.0 0.00 0.00 0.00 90 996.0
20260507015717 22 293 0.0 0.0 0.00 0.00 0.00 90 996.0
20260507015604 22 293 0.0 0.0 0.00 0.00 0.00 90 996.0
20260507015504 22 293 0.0 0.0 0.00 0.00 0.00 90 995.9
20260507015232 22 293 0.0 0.0 0.00 0.00 0.00 89 996.0
20260507015129 22 293 0.0 0.0 0.00 0.00 0.00 89 996.2
20260507015017 22 293 0.0 0.0 0.00 0.00 0.00 89 996.2
20260507014909 22 293 0.0 0.0 0.00 0.00 0.00 89 996.2
20260507014754 22 293 0.0 0.0 0.00 0.00 0.00 89 996.1
20260507014642 22 293 0.0 3.2 0.00 0.00 0.00 89 996.0
20260507014534 22 293 0.0 3.2 0.00 0.00 0.00 89 996.1
20260507014425 22 293 0.0 3.2 0.00 0.00 0.00 89 996.1
20260507014314 22 293 0.0 3.2 0.00 0.00 0.00 89 995.9
20260507014054 22 293 0.0 3.2 0.00 0.00 0.00 89 995.8
20260507013946 22 293 0.0 3.2 0.00 0.00 0.00 89 996.1
20260507013721 22 293 0.0 6.4 0.00 0.00 0.00 89 996.0
20260507013610 22 293 1.6 6.4 0.00 0.00 0.00 89 996.0
20260507013502 22 293 1.6 6.4 0.00 0.00 0.00 89 995.9
20260507013345 22 293 1.6 6.4 0.00 0.00 0.00 89 996.2
20260507013242 22 293 3.2 6.4 0.00 0.00 0.00 89 996.1
20260507013132 22 293 3.2 6.4 0.00 0.00 0.00 89 996.1
20260507013019 22 293 3.2 6.4 0.00 0.00 0.00 89 996.4
20260507012903 22 45 3.2 6.4 0.00 0.00 0.00 89 996.2
20260507012646 22 45 4.8 6.4 0.00 0.00 0.00 89 996.2
20260507012423 22 293 4.8 6.4 0.00 0.00 0.00 89 996.4
20260507012315 22 45 4.8 6.4 0.00 0.00 0.00 89 996.5
20260507012203 22 293 3.2 6.4 0.00 0.00 0.00 89 996.4
20260507012102 22 293 4.8 6.4 0.00 0.00 0.00 89 996.4
20260507011943 22 293 3.2 6.4 0.00 0.00 0.00 89 996.5
20260507011834 22 45 3.2 6.4 0.00 0.00 0.00 90 996.5
20260507011724 21 293 4.8 6.4 0.00 0.00 0.00 90 996.5
20260507011614 21 293 3.2 6.4 0.00 0.00 0.00 90 996.3
20260507011457 21 22 3.2 6.4 0.00 0.00 0.00 90 996.5
20260507011347 21 22 4.8 6.4 0.00 0.00 0.00 90 996.5
20260507011255 21 22 4.8 6.4 0.00 0.00 0.00 90 996.5
20260507011137 21 22 4.8 6.4 0.00 0.00 0.00 89 996.4
20260507011021 22 22 4.8 6.4 0.00 0.00 0.00 89 996.4
20260507010912 22 22 3.2 6.4 0.00 0.00 0.00 89 996.3
20260507010818 22 22 4.8 6.4 0.00 0.00 0.00 89 996.2
20260507010655 22 22 4.8 6.4 0.00 0.00 0.00 89 996.3
20260507010535 22 22 4.8 6.4 0.00 0.00 0.00 89 996.1
20260507010443 22 22 3.2 6.4 0.00 0.00 0.00 88 996.1
20260507010359 22 22 3.2 6.4 0.00 0.00 0.00 88 996.2
20260507010317 22 45 3.2 6.4 0.00 0.00 0.00 88 996.2
20260507010050 22 293 3.2 6.4 0.00 0.00 0.00 88 996.4
20260507005941 22 293 3.2 6.4 0.00 0.00 0.00 88 996.0
20260507005839 22 293 3.2 9.7 0.00 0.00 0.00 88 996.1
20260507005735 22 293 3.2 9.7 0.00 0.00 0.00 88 996.2
20260507005610 22 293 3.2 9.7 0.00 0.00 0.00 88 996.3
20260507005506 22 293 4.8 9.7 0.00 0.00 0.00 88 996.3
20260507005355 22 45 4.8 9.7 0.00 0.00 0.00 88 996.3
20260507005247 22 45 4.8 9.7 0.00 0.00 0.00 89 996.2
20260507005125 22 293 4.8 9.7 0.00 0.00 0.00 89 996.3
20260507005017 22 293 6.4 9.7 0.00 0.00 0.00 89 996.4
20260507004913 22 293 6.4 9.7 0.00 0.00 0.00 90 996.3
20260507004821 21 22 3.2 6.4 0.00 0.00 0.00 90 996.2
20260507004752 21 22 3.2 6.4 0.00 0.00 0.00 90 996.3
20260507004541 21 22 3.2 6.4 0.00 0.00 0.00 90 996.2
20260507004430 22 45 4.8 6.4 0.00 0.00 0.00 90 996.2
20260507004321 22 22 3.2 6.4 0.00 0.00 0.00 90 996.6
20260507004204 22 22 3.2 6.4 0.00 0.00 0.00 90 996.3
20260507004054 22 22 3.2 6.4 0.00 0.00 0.00 90 996.4
20260507003950 22 22 3.2 6.4 0.00 0.00 0.00 89 996.5
20260507003837 22 22 4.8 6.4 0.00 0.00 0.00 89 996.7
20260507003721 22 22 4.8 6.4 0.00 0.00 0.00 89 996.5
20260507003507 22 22 3.2 6.4 0.00 0.00 0.00 88 996.9
20260507003357 22 22 3.2 6.4 0.00 0.00 0.00 88 996.8
20260507003251 22 45 3.2 6.4 0.00 0.00 0.00 88 996.7
20260507003231 22 45 3.2 6.4 0.00 0.00 0.00 88 996.8
20260507003026 22 45 3.2 6.4 0.00 0.00 0.00 88 996.6
20260507002915 22 45 3.2 6.4 0.00 0.00 0.00 88 996.5
20260507002755 22 293 3.2 6.4 0.00 0.00 0.00 87 996.5
20260507002650 22 293 3.2 6.4 0.00 0.00 0.00 87 996.6
20260507002547 22 293 3.2 6.4 0.00 0.00 0.00 87 996.5
20260507002438 22 293 3.2 6.4 0.00 0.00 0.00 87 996.7
20260507002312 22 293 3.2 6.4 0.00 0.00 0.00 87 996.7
20260507002245 22 293 3.2 6.4 0.00 0.00 0.00 87 996.8
20260507002209 22 270 3.2 6.4 0.00 0.00 0.00 87 996.8
20260507001951 23 270 3.2 6.4 0.00 0.00 0.00 87 996.6
20260507001832 23 270 3.2 6.4 0.00 0.00 0.00 86 996.8
20260507001729 23 270 3.2 6.4 0.00 0.00 0.00 86 996.8
20260507001622 23 293 3.2 6.4 0.00 0.00 0.00 86 996.8
20260507001511 23 293 3.2 6.4 0.00 0.00 0.00 86 996.7
20260507001403 23 45 3.2 6.4 0.00 0.00 0.00 86 996.7
20260507001244 23 45 3.2 6.4 0.00 0.00 0.00 86 996.8
20260507001136 23 22 3.2 6.4 0.00 0.00 0.00 86 996.7
20260507000913 23 22 4.8 6.4 0.00 0.00 0.00 86 996.7
20260507000803 23 0 4.8 6.4 0.00 0.00 0.00 86 996.9
20260507000653 23 22 4.8 6.4 0.00 0.00 0.00 86 996.9
20260507000552 23 293 3.2 6.4 0.00 0.00 0.00 86 997.0
20260507000431 23 22 3.2 6.4 0.00 0.00 0.00 87 996.9
20260507000324 23 45 3.2 6.4 0.00 0.00 0.00 87 996.9
20260507000223 23 22 1.6 3.2 0.00 0.00 0.00 87 997.1
20260507000148 23 45 3.2 3.2 0.00 0.00 0.00 86 997.1
20260506235946 23 22 3.2 3.2 0.00 0.00 0.00 87 996.9
20260506235837 23 270 3.2 3.2 0.00 0.00 0.00 87 997.0
20260506235732 23 270 3.2 6.4 0.00 0.00 0.00 87 997.0
20260506235624 23 293 3.2 6.4 0.00 0.00 0.00 87 997.2
20260506235511 23 293 3.2 6.4 0.00 0.00 0.00 87 997.1
20260506235401 23 293 3.2 6.4 0.00 0.00 0.00 87 997.3
20260506235252 23 248 3.2 6.4 0.00 0.00 0.00 87 997.0
20260506235143 23 225 3.2 6.4 0.00 0.00 0.00 87 997.0
20260506235024 23 248 3.2 9.7 0.00 0.00 0.00 87 996.9
20260506234916 23 225 3.2 9.7 0.00 0.00 0.00 87 997.1
20260506234806 23 225 4.8 9.7 0.00 0.00 0.00 88 997.2
20260506234657 23 225 4.8 9.7 0.00 0.00 0.00 88 997.2
20260506234537 23 225 3.2 9.7 0.00 0.00 0.00 88 997.2
20260506234325 23 225 4.8 9.7 0.00 0.00 0.00 88 997.0
20260506234213 22 203 6.4 9.7 0.00 0.00 0.00 89 996.9
20260506234112 22 225 6.4 9.7 0.00 0.00 0.00 88 997.0
20260506234037 22 225 8.0 9.7 0.00 0.00 0.00 89 997.0
20260506233842 22 225 4.8 6.4 0.00 0.00 0.00 88 996.9
20260506233734 22 225 3.2 3.2 0.00 0.00 0.00 88 997.1
20260506233618 22 225 3.2 3.2 0.00 0.00 0.00 88 996.7
20260506233509 22 203 3.2 3.2 0.00 0.00 0.00 87 996.8
20260506233406 22 203 3.2 3.2 0.00 0.00 0.00 87 996.7
20260506233256 23 203 0.0 6.4 0.00 0.00 0.00 86 996.6
20260506233135 23 45 0.0 6.4 0.00 0.00 0.00 86 996.7
20260506233035 23 45 0.0 6.4 0.00 0.00 0.00 86 996.7
20260506232931 23 45 0.0 6.4 0.00 0.00 0.00 86 996.6
20260506232808 23 22 1.6 6.4 0.00 0.00 0.00 86 996.7
20260506232649 23 22 1.6 6.4 0.00 0.00 0.00 86 996.7
20260506232544 23 22 3.2 6.4 0.00 0.00 0.00 85 996.7
20260506232435 23 22 3.2 6.4 0.00 0.00 0.00 85 996.8
20260506232331 23 22 3.2 6.4 0.00 0.00 0.00 85 996.6
20260506232229 23 22 3.2 6.4 0.00 0.00 0.00 85 996.5
20260506232104 23 22 3.2 6.4 0.00 0.00 0.00 85 996.5
20260506232029 23 0 4.8 6.4 0.00 0.00 0.00 86 996.5
20260506231730 23 22 4.8 6.4 0.00 0.00 0.00 86 996.4
20260506231623 23 22 4.8 6.4 0.00 0.00 0.00 86 996.3
20260506231514 23 22 4.8 6.4 0.00 0.00 0.00 86 996.3
20260506231412 23 22 4.8 6.4 0.00 0.00 0.00 85 996.6
20260506231249 23 22 3.2 6.4 0.00 0.00 0.00 85 996.5
20260506231157 23 22 3.2 6.4 0.00 0.00 0.00 85 996.6
20260506231034 23 22 3.2 6.4 0.00 0.00 0.00 85 996.5
20260506230950 23 45 3.2 6.4 0.00 0.00 0.00 85 996.6
20260506230805 23 22 3.2 6.4 0.00 0.00 0.00 85 996.4
20260506230711 23 22 3.2 6.4 0.00 0.00 0.00 85 996.3
20260506230555 23 22 3.2 6.4 0.00 0.00 0.00 85 996.5
20260506230441 23 22 3.2 6.4 0.00 0.00 0.00 85 996.5
20260506230406 23 22 3.2 6.4 0.00 0.00 0.00 85 996.4
20260506230215 23 0 3.2 6.4 0.00 0.00 0.00 84 996.3
20260506230107 23 0 3.2 6.4 0.00 0.00 0.00 84 996.4
20260506225957 23 0 3.2 6.4 0.00 0.00 0.00 84 996.3
20260506225839 23 23 3.2 6.4 0.00 0.00 0.00 84 996.5
20260506225737 24 0 3.2 6.4 0.00 0.00 0.00 83 996.4
20260506225626 24 0 3.2 6.4 0.00 0.00 0.00 83 996.6
20260506225517 24 23 1.6 3.2 0.00 0.00 0.00 83 996.4
20260506225401 24 45 0.0 0.0 0.00 0.00 0.00 83 996.5
20260506225141 24 180 0.0 0.0 0.00 0.00 0.00 83 996.6
20260506225039 24 180 0.0 3.2 0.00 0.00 0.00 84 996.6
20260506224919 24 180 0.0 3.2 0.00 0.00 0.00 84 996.6
20260506224811 24 203 0.0 3.2 0.00 0.00 0.00 84 996.7
20260506224701 24 203 0.0 3.2 0.00 0.00 0.00 83 996.5
20260506224551 24 203 0.0 3.2 0.00 0.00 0.00 83 996.6
20260506224439 25 225 0.0 6.4 0.00 0.00 0.00 83 996.6
20260506224331 25 248 0.0 9.7 0.00 0.00 0.00 82 996.5
20260506224221 25 270 0.0 9.7 0.00 0.00 0.00 82 996.4
20260506224112 25 270 1.6 9.7 0.00 0.00 0.00 82 996.5
20260506223955 25 270 1.6 9.7 0.00 0.00 0.00 81 996.3
20260506223846 25 293 1.6 9.7 0.00 0.00 0.00 81 996.4
20260506223627 25 45 3.2 9.7 0.00 0.00 0.00 81 996.2
20260506223508 25 22 3.2 9.7 0.00 0.00 0.00 81 996.1
20260506223407 25 22 6.4 9.7 0.00 0.00 0.00 81 996.0
20260506223323 25 22 4.8 6.4 0.00 0.00 0.00 81 996.1
20260506223144 25 22 4.8 6.4 0.00 0.00 0.00 81 995.9
20260506223032 25 0 3.2 6.4 0.00 0.00 0.00 81 996.0
20260506222925 25 22 3.2 6.4 0.00 0.00 0.00 81 996.0
20260506222814 24 22 3.2 6.4 0.00 0.00 0.00 81 995.9
20260506222546 24 0 3.2 6.4 0.00 0.00 0.00 82 995.9
20260506222437 24 22 3.2 6.4 0.00 0.00 0.00 82 995.9
20260506222329 24 22 3.2 6.4 0.00 0.00 0.00 82 996.0
20260506222229 24 22 3.2 6.4 0.00 0.00 0.00 82 995.8
20260506222107 24 22 3.2 6.4 0.00 0.00 0.00 82 995.9
20260506221957 24 22 3.2 6.4 0.00 0.00 0.00 82 995.9
20260506221849 24 0 3.2 6.4 0.00 0.00 0.00 82 995.8
20260506221741 24 22 3.2 6.4 0.00 0.00 0.00 82 995.7
20260506221623 24 22 3.2 6.4 0.00 0.00 0.00 82 995.9
20260506221522 24 22 3.2 6.4 0.00 0.00 0.00 82 995.8
20260506221409 24 22 3.2 6.4 0.00 0.00 0.00 82 995.9
20260506221332 24 22 3.2 6.4 0.00 0.00 0.00 82 995.6
20260506221257 24 22 3.2 9.7 0.00 0.00 0.00 81 995.6
20260506221037 24 22 4.8 9.7 0.00 0.00 0.00 81 995.8
20260506220926 24 22 3.2 9.7 0.00 0.00 0.00 81 995.8
20260506220817 24 22 3.2 9.7 0.00 0.00 0.00 81 995.7
20260506220659 24 22 3.2 9.7 0.00 0.00 0.00 81 995.6
20260506220549 24 22 4.8 9.7 0.00 0.00 0.00 81 995.5
20260506220441 25 22 4.8 9.7 0.00 0.00 0.00 80 995.5
20260506220333 25 22 6.4 11.3 0.00 0.00 0.00 80 995.6
20260506220215 25 22 6.4 11.3 0.00 0.00 0.00 80 995.6
20260506220138 25 22 6.4 11.3 0.00 0.00 0.00 80 995.6
20260506220005 25 22 6.4 11.3 0.00 0.00 0.00 79 995.6
20260506215854 25 22 6.4 11.3 0.00 0.00 0.00 79 995.6
20260506215738 25 22 6.4 11.3 0.00 0.00 0.00 78 995.6
20260506215630 25 22 6.4 11.3 0.00 0.00 0.00 78 995.6
20260506215517 25 22 6.4 12.9 0.00 0.00 0.00 78 995.6
20260506215416 25 22 6.4 12.9 0.00 0.00 0.00 78 995.5
20260506215250 25 22 8.0 17.7 0.00 0.00 0.00 78 995.6
20260506215148 25 0 8.0 17.7 0.00 0.00 0.00 77 995.5
20260506215036 25 22 8.0 17.7 0.00 0.00 0.00 77 995.6
20260506214928 26 22 8.0 17.7 0.00 0.00 0.00 77 995.6
20260506214809 26 22 8.0 17.7 0.00 0.00 0.00 77 995.6
20260506214701 26 22 8.0 17.7 0.00 0.00 0.00 76 995.5
20260506214601 26 22 9.7 17.7 0.00 0.00 0.00 76 995.5
20260506214448 26 22 11.3 17.7 0.00 0.00 0.00 76 995.6
20260506214328 26 22 12.9 17.7 0.00 0.00 0.00 76 995.4
20260506214236 26 22 12.9 17.7 0.00 0.00 0.00 76 995.5
20260506214005 26 22 12.9 20.9 0.00 0.00 0.00 75 995.5
20260506213738 26 22 12.9 20.9 0.00 0.00 0.00 75 995.4
20260506213630 26 22 12.9 20.9 0.00 0.00 0.00 75 995.4
20260506213408 26 22 12.9 20.9 0.00 0.00 0.00 75 995.4
20260506213300 26 22 12.9 20.9 0.00 0.00 0.00 74 995.2
20260506213152 26 0 14.5 20.9 0.00 0.00 0.00 74 995.3
20260506213042 26 22 12.9 20.9 0.00 0.00 0.00 74 995.4
20260506212921 26 0 12.9 20.9 0.00 0.00 0.00 74 995.3
20260506212819 26 22 11.3 25.7 0.00 0.00 0.00 74 995.2
20260506212708 26 22 12.9 25.7 0.00 0.00 0.00 74 995.3
20260506212604 26 22 14.5 25.7 0.00 0.00 0.00 74 995.2
20260506212441 27 0 12.9 25.7 0.00 0.00 0.00 74 995.2
20260506212332 27 22 11.3 25.7 0.00 0.00 0.00 73 995.3
20260506212230 27 22 12.9 25.7 0.00 0.00 0.00 73 995.1
20260506212119 27 22 16.1 25.7 0.00 0.00 0.00 73 995.3
20260506212004 27 22 12.9 33.8 0.00 0.00 0.00 73 995.1
20260506211854 27 22 14.5 33.8 0.00 0.00 0.00 72 995.2
20260506211743 27 0 17.7 33.8 0.00 0.00 0.00 72 994.9
20260506211634 27 22 19.3 33.8 0.00 0.00 0.00 72 995.0
20260506211606 27 22 16.1 33.8 0.00 0.00 0.00 72 995.0
20260506211409 27 22 17.7 33.8 0.00 0.00 0.00 72 995.0
20260506211259 27 22 12.9 33.8 0.00 0.00 0.00 72 995.0
20260506211151 27 22 14.5 33.8 0.00 0.00 0.00 71 994.8
20260506211036 27 0 22.5 33.8 0.00 0.00 0.00 71 994.9
20260506210820 27 22 24.1 32.2 0.00 0.00 0.00 71 994.7
20260506210711 27 22 24.1 29.0 0.00 0.00 0.00 71 994.8
20260506210612 27 0 17.7 29.0 0.00 0.00 0.00 70 994.6
20260506210536 27 0 24.1 29.0 0.00 0.00 0.00 70 994.7
20260506210341 27 23 20.9 29.0 0.00 0.00 0.00 70 994.6
20260506210230 27 0 17.7 32.2 0.00 0.00 0.00 70 994.8
20260506210112 28 22 16.1 32.2 0.00 0.00 0.00 70 994.9
20260506210007 28 0 20.9 32.2 0.00 0.00 0.00 69 994.9
20260506205856 28 0 17.7 32.2 0.00 0.00 0.00 69 994.9
20260506205745 28 45 17.7 32.2 0.00 0.00 0.00 69 994.9
20260506205636 28 22 19.3 32.2 0.00 0.00 0.00 69 995.1
20260506205601 28 0 19.3 32.2 0.00 0.00 0.00 69 995.1
20260506205525 28 22 19.3 32.2 0.00 0.00 0.00 69 995.1
20260506205311 28 0 22.5 29.0 0.00 0.00 0.00 68 995.0
20260506205150 28 23 20.9 29.0 0.00 0.00 0.00 69 994.9
20260506205041 28 0 17.7 29.0 0.00 0.00 0.00 69 995.1
20260506204932 28 0 19.3 29.0 0.00 0.00 0.00 69 995.0
20260506204822 28 0 22.5 29.0 0.00 0.00 0.00 69 995.2
20260506204706 28 0 20.9 29.0 0.00 0.00 0.00 68 995.1
20260506204556 28 0 20.9 29.0 0.00 0.00 0.00 68 995.3
20260506204447 28 22 19.3 29.0 0.00 0.00 0.00 68 995.3
20260506204224 28 0 17.7 29.0 0.00 0.00 0.00 68 995.4
20260506204115 28 0 16.1 29.0 0.00 0.00 0.00 68 995.5
20260506204007 28 22 19.3 29.0 0.00 0.00 0.00 68 995.4
20260506203859 28 22 19.3 29.0 0.00 0.00 0.00 68 995.5
20260506203741 28 22 22.5 29.0 0.00 0.00 0.00 67 995.4
20260506203638 28 22 19.3 29.0 0.00 0.00 0.00 67 995.4
20260506203528 28 0 22.5 27.4 0.00 0.00 0.00 67 995.6
20260506203418 28 0 17.7 27.4 0.00 0.00 0.00 68 995.6
20260506203304 28 22 19.3 27.4 0.00 0.00 0.00 67 995.5
20260506203156 28 22 17.7 27.4 0.00 0.00 0.00 67 995.5
20260506203048 28 0 17.7 27.4 0.00 0.00 0.00 67 995.7
20260506202940 28 22 17.7 27.4 0.00 0.00 0.00 67 995.6
20260506202824 28 22 17.7 29.0 0.00 0.00 0.00 67 995.7
20260506202712 28 22 19.3 29.0 0.00 0.00 0.00 67 995.7
20260506202456 28 0 24.1 29.0 0.00 0.00 0.00 67 995.7
20260506202427 28 22 24.1 29.0 0.00 0.00 0.00 67 995.5
20260506202232 29 22 17.7 29.0 0.00 0.00 0.00 67 995.9
20260506202124 29 22 17.7 29.0 0.00 0.00 0.00 67 995.6
20260506202014 29 22 19.3 29.0 0.00 0.00 0.00 66 995.7
20260506201855 29 22 19.3 29.0 0.00 0.00 0.00 66 995.8
20260506201636 29 0 24.1 29.0 0.00 0.00 0.00 66 996.0
20260506201528 29 22 20.9 29.0 0.00 0.00 0.00 66 995.9
20260506201410 29 22 24.1 29.0 0.00 0.00 0.00 66 995.9
20260506201306 29 0 22.5 29.0 0.00 0.00 0.00 66 995.7
20260506201156 29 0 24.1 29.0 0.00 0.00 0.00 65 995.7
20260506201054 29 22 24.1 29.0 0.00 0.00 0.00 65 995.7
20260506200931 29 0 17.7 29.0 0.00 0.00 0.00 65 995.7
20260506200823 29 22 17.7 29.0 0.00 0.00 0.00 65 995.8
20260506200711 29 0 20.9 29.0 0.00 0.00 0.00 65 995.8
20260506200611 30 22 17.7 29.0 0.00 0.00 0.00 64 996.0
20260506200445 30 22 17.7 29.0 0.00 0.00 0.00 64 995.9
20260506200343 30 22 17.7 29.0 0.00 0.00 0.00 64 995.9
20260506200240 30 45 20.9 29.0 0.00 0.00 0.00 63 996.1
20260506200123 30 22 20.9 29.0 0.00 0.00 0.00 63 996.0
20260506200005 30 22 19.3 29.0 0.00 0.00 0.00 63 996.0
20260506195856 30 0 17.7 29.0 0.00 0.00 0.00 61 995.9
20260506195748 30 22 20.9 29.0 0.00 0.00 0.00 61 996.1
20260506195646 30 45 24.1 29.0 0.00 0.00 0.00 59 996.2
20260506195527 30 22 16.1 25.7 0.00 0.00 0.00 59 996.1
20260506195417 30 45 12.9 25.7 0.00 0.00 0.00 60 996.2
20260506195306 30 45 16.1 25.7 0.00 0.00 0.00 60 996.0
20260506195046 30 45 12.9 27.4 0.00 0.00 0.00 60 996.2
20260506194934 30 45 14.5 32.2 0.00 0.00 0.00 59 996.2
20260506194834 30 293 17.7 32.2 0.00 0.00 0.00 59 996.4
20260506194807 30 45 17.7 32.2 0.00 0.00 0.00 58 996.3
20260506194557 30 293 19.3 32.2 0.00 0.00 0.00 58 996.1
20260506194455 30 45 14.5 32.2 0.00 0.00 0.00 58 996.2
20260506194344 30 293 19.3 32.2 0.00 0.00 0.00 58 996.3
20260506194242 30 293 20.9 32.2 0.00 0.00 0.00 58 996.1
20260506194119 30 45 20.9 32.2 0.00 0.00 0.00 59 996.3
20260506194010 30 293 24.1 32.2 0.00 0.00 0.00 58 996.3
20260506193900 30 293 24.1 32.2 0.00 0.00 0.00 58 996.4
20260506193752 31 293 22.5 29.0 0.00 0.00 0.00 58 996.2
20260506193529 31 45 17.7 29.0 0.00 0.00 0.00 58 996.4
20260506193421 31 45 17.7 29.0 0.00 0.00 0.00 58 996.3
20260506193316 31 45 17.7 29.0 0.00 0.00 0.00 57 996.4
20260506193157 31 293 20.9 29.0 0.00 0.00 0.00 57 996.4
20260506193045 31 293 20.9 29.0 0.00 0.00 0.00 57 996.5
20260506192937 31 293 12.9 27.4 0.00 0.00 0.00 58 996.6
20260506192829 30 293 14.5 27.4 0.00 0.00 0.00 58 996.5
20260506192709 30 45 14.5 29.0 0.00 0.00 0.00 59 996.6
20260506192455 30 293 16.1 29.0 0.00 0.00 0.00 59 996.6
20260506192353 30 45 17.7 29.0 0.00 0.00 0.00 59 996.5
20260506192234 30 293 16.1 29.0 0.00 0.00 0.00 59 996.6
20260506192126 30 293 19.3 29.0 0.00 0.00 0.00 59 996.6
20260506192014 30 45 17.7 29.0 0.00 0.00 0.00 58 996.9
20260506191910 30 270 19.3 29.0 0.00 0.00 0.00 58 996.6
20260506191750 30 293 14.5 29.0 0.00 0.00 0.00 58 996.7
20260506191640 30 293 17.7 29.0 0.00 0.00 0.00 58 996.7
20260506191530 30 293 17.7 29.0 0.00 0.00 0.00 58 996.5
20260506191422 30 45 17.7 29.0 0.00 0.00 0.00 58 996.7
20260506191156 30 270 19.3 29.0 0.00 0.00 0.00 58 996.4
20260506191057 30 293 17.7 29.0 0.00 0.00 0.00 59 996.7
20260506190946 30 270 17.7 29.0 0.00 0.00 0.00 59 996.5
20260506190824 30 293 17.7 29.0 0.00 0.00 0.00 59 996.5
20260506190716 30 270 20.9 29.0 0.00 0.00 0.00 59 996.6
20260506190608 30 293 24.1 29.0 0.00 0.00 0.00 58 996.5
20260506190511 30 45 24.1 29.0 0.00 0.00 0.00 58 996.3
20260506190344 30 293 19.3 25.7 0.00 0.00 0.00 59 996.4
20260506190241 30 293 14.5 25.7 0.00 0.00 0.00 59 996.3
20260506190205 30 293 17.7 25.7 0.00 0.00 0.00 60 996.3
20260506190128 30 22 19.3 27.4 0.00 0.00 0.00 60 996.3
20260506185903 30 293 17.7 27.4 0.00 0.00 0.00 60 996.1
20260506185750 30 22 12.9 29.0 0.00 0.00 0.00 60 996.3
20260506185650 30 22 14.5 29.0 0.00 0.00 0.00 60 996.3
20260506185542 30 22 14.5 29.0 0.00 0.00 0.00 60 996.3
20260506185422 30 22 16.1 29.0 0.00 0.00 0.00 60 996.2
20260506185311 30 293 17.7 29.0 0.00 0.00 0.00 59 996.2
20260506185201 31 45 19.3 29.0 0.00 0.00 0.00 59 996.2
20260506185126 31 45 19.3 29.0 0.00 0.00 0.00 59 996.2
20260506184938 31 293 16.1 29.0 0.00 0.00 0.00 59 996.1
20260506184830 31 45 20.9 29.0 0.00 0.00 0.00 58 996.4
20260506184721 31 45 14.5 29.0 0.00 0.00 0.00 58 996.1
20260506184612 30 45 14.5 29.0 0.00 0.00 0.00 59 996.2
20260506184504 30 45 17.7 29.0 0.00 0.00 0.00 59 996.5
20260506184351 30 22 19.3 29.0 0.00 0.00 0.00 59 996.3
20260506184249 30 293 20.9 29.0 0.00 0.00 0.00 59 996.4
20260506184131 30 22 19.3 27.4 0.00 0.00 0.00 59 996.4
20260506184013 31 22 20.9 27.4 0.00 0.00 0.00 58 996.3
20260506183903 31 293 20.9 27.4 0.00 0.00 0.00 58 996.4
20260506183801 31 22 22.5 35.4 0.00 0.00 0.00 58 996.4
20260506183653 31 22 17.7 35.4 0.00 0.00 0.00 57 996.5
20260506183532 31 45 17.7 35.4 0.00 0.00 0.00 58 996.4
20260506183319 31 293 20.9 35.4 0.00 0.00 0.00 58 996.3
20260506183209 31 293 24.1 35.4 0.00 0.00 0.00 56 996.4
20260506183051 31 270 20.9 35.4 0.00 0.00 0.00 56 996.6
20260506182942 31 270 22.5 35.4 0.00 0.00 0.00 56 996.5
20260506182832 31 45 25.7 35.4 0.00 0.00 0.00 57 996.3
20260506182724 31 293 25.7 33.8 0.00 0.00 0.00 57 996.5
20260506182607 31 270 20.9 32.2 0.00 0.00 0.00 57 996.4
20260506182459 31 45 24.1 32.2 0.00 0.00 0.00 57 996.4
20260506182349 31 45 22.5 32.2 0.00 0.00 0.00 55 996.6
20260506182241 32 45 22.5 33.8 0.00 0.00 0.00 56 996.5
20260506182124 32 293 25.7 33.8 0.00 0.00 0.00 56 996.5
20260506182015 32 45 19.3 35.4 0.00 0.00 0.00 55 996.4
20260506181915 32 45 16.1 35.4 0.00 0.00 0.00 58 996.4
20260506181805 31 270 22.5 35.4 0.00 0.00 0.00 58 996.4
20260506181640 31 293 19.3 35.4 0.00 0.00 0.00 56 996.5
20260506181534 31 270 17.7 35.4 0.00 0.00 0.00 57 996.5
20260506181426 31 45 25.7 35.4 0.00 0.00 0.00 58 996.7
20260506181321 31 293 27.4 35.4 0.00 0.00 0.00 58 996.6
20260506181203 31 293 24.1 35.4 0.00 0.00 0.00 57 996.7
20260506181053 31 270 22.5 35.4 0.00 0.00 0.00 58 996.8
20260506181026 31 45 24.1 32.2 0.00 0.00 0.00 57 996.7
20260506180945 31 45 24.1 32.2 0.00 0.00 0.00 57 996.8
20260506180717 31 293 14.5 27.4 0.00 0.00 0.00 57 996.6
20260506180614 31 45 17.7 32.2 0.00 0.00 0.00 59 996.6
20260506180501 31 293 19.3 32.2 0.00 0.00 0.00 59 996.7
20260506180359 31 45 19.3 32.2 0.00 0.00 0.00 59 996.7
20260506180239 31 22 19.3 32.2 0.00 0.00 0.00 58 996.8
20260506180130 31 270 17.7 32.2 0.00 0.00 0.00 58 996.6
20260506180021 31 45 16.1 32.2 0.00 0.00 0.00 57 996.9
20260506175918 31 45 19.3 32.2 0.00 0.00 0.00 59 996.6
20260506175800 31 0 19.3 32.2 0.00 0.00 0.00 59 996.6
20260506175650 31 45 22.5 32.2 0.00 0.00 0.00 59 996.5
20260506175539 31 22 19.3 27.4 0.00 0.00 0.00 59 996.8
20260506175429 31 45 16.1 29.0 0.00 0.00 0.00 60 996.7
20260506175327 31 22 17.7 29.0 0.00 0.00 0.00 59 996.9
20260506175205 31 293 17.7 32.2 0.00 0.00 0.00 60 996.8
20260506175057 31 293 17.7 32.2 0.00 0.00 0.00 61 996.8
20260506174949 31 293 22.5 32.2 0.00 0.00 0.00 60 996.9
20260506174833 31 293 22.5 32.2 0.00 0.00 0.00 59 996.9
20260506174739 31 293 17.7 32.2 0.00 0.00 0.00 59 996.9
20260506174704 31 22 20.9 32.2 0.00 0.00 0.00 59 996.7
20260506174508 31 45 22.5 32.2 0.00 0.00 0.00 59 996.9
20260506174349 31 293 24.1 32.2 0.00 0.00 0.00 60 997.1
20260506174138 31 45 24.1 32.2 0.00 0.00 0.00 60 997.0
20260506174028 31 45 17.7 33.8 0.00 0.00 0.00 60 997.0
20260506173910 31 45 20.9 33.8 0.00 0.00 0.00 60 997.2
20260506173759 31 293 17.7 33.8 0.00 0.00 0.00 60 997.2
20260506173649 31 293 16.1 33.8 0.00 0.00 0.00 60 997.2
20260506173541 31 293 16.1 33.8 0.00 0.00 0.00 60 997.1
20260506173429 31 293 20.9 33.8 0.00 0.00 0.00 60 997.1
20260506173318 31 22 19.3 33.8 0.00 0.00 0.00 60 997.3
20260506173208 31 22 24.1 33.8 0.00 0.00 0.00 61 997.2
20260506173059 31 22 22.5 35.4 0.00 0.00 0.00 59 997.4
20260506172943 31 45 20.9 35.4 0.00 0.00 0.00 59 997.5
20260506172832 31 45 22.5 35.4 0.00 0.00 0.00 59 997.3
20260506172740 31 45 17.7 35.4 0.00 0.00 0.00 61 997.4
20260506172621 31 45 20.9 35.4 0.00 0.00 0.00 61 997.4
20260506172502 31 45 16.1 35.4 0.00 0.00 0.00 60 997.5
20260506172410 31 45 17.7 35.4 0.00 0.00 0.00 61 997.6
20260506172334 31 293 25.7 35.4 0.00 0.00 0.00 60 997.5
20260506172138 31 22 27.4 35.4 0.00 0.00 0.00 60 997.6
20260506172017 31 22 24.1 29.0 0.00 0.00 0.00 60 997.6
20260506171909 31 45 20.9 29.0 0.00 0.00 0.00 60 997.7
20260506171809 31 45 20.9 29.0 0.00 0.00 0.00 60 997.6
20260506171537 31 22 17.7 29.0 0.00 0.00 0.00 61 997.6
20260506171434 31 45 24.1 29.0 0.00 0.00 0.00 62 997.7
20260506171326 31 270 22.5 29.0 0.00 0.00 0.00 61 997.6
20260506171217 31 22 16.1 29.0 0.00 0.00 0.00 62 997.6
20260506171057 31 45 17.7 29.0 0.00 0.00 0.00 61 997.8
20260506170946 31 45 19.3 29.0 0.00 0.00 0.00 61 997.7
20260506170838 30 22 19.3 29.0 0.00 0.00 0.00 62 997.7
20260506170730 30 45 19.3 27.4 0.00 0.00 0.00 62 998.0
20260506170612 30 22 20.9 27.4 0.00 0.00 0.00 62 997.7